Location: Unspecified
(0.0000°N, 0.0000°E)
Time: 15:59:33
(UTC+00:00)

Tiros 1 - Visible Passes

Search period start: 23 November 2014 00:00
Search period end: 03 December 2014 00:00
Orbit: 633 x 667 km, 48.4° (Epoch: 22 November)

Date Brightness Start Highest point End Pass type
(mag) Time Alt. Az. Time Alt. Az. Time Alt. Az.
23 Nov 8.2 18:41:46 10° N 18:45:21 22° NE 18:46:00 22° ENE visible
23 Nov 10.0 20:23:32 10° WNW 20:23:56 12° WNW 20:23:56 12° WNW visible
24 Nov 6.9 19:07:40 10° NW 19:12:16 78° NE 19:15:31 19° SE visible
25 Nov 9.0 19:35:11 10° WNW 19:39:10 29° SW 19:43:11 10° S visible
26 Nov 7.0 18:19:25 10° NNW 18:24:01 72° NE 18:28:37 10° SE visible
27 Nov 10.6 04:53:58 10° SSE 04:55:18 11° SE 04:56:38 10° ESE visible
27 Nov 9.1 18:46:49 10° WNW 18:50:55 31° SW 18:55:01 10° SSE visible
28 Nov 9.1 05:17:54 10° SSW 05:22:18 35° SE 05:26:41 10° ENE visible
30 Nov 9.0 04:29:43 10° SSW 04:34:00 33° SE 04:38:18 10° ENE visible
30 Nov 10.8 18:29:01 10° WSW 18:29:38 10° SW 18:30:14 10° SW visible
01 Dec 7.1 04:56:08 10° SW 05:00:54 73° NW 05:05:41 10° NNE visible
02 Dec 9.0 03:41:32 10° S 03:45:43 30° SE 03:49:54 10° ENE visible
